Date,TemperatureHighF,TemperatureAvgF,TemperatureLowF,DewpointHighF,DewpointAvgF,DewpointLowF,HumidityHigh,HumidityAvg,HumidityLow,PressureMaxIn,PressureMinIn,WindSpeedMaxMPH,WindSpeedAvgMPH,GustSpeedMaxMPH,PrecipitationSumIn
2013-1-1,37.5,33.1,25.7,29.0,23.0,13.9,77,67,56,29.91,29.75,5,3,8,0.05
2013-1-2,30.7,24.9,18.1,17.4,13.0,7.6,73,60,51,30.07,29.91,5,3,9,0.00
2013-1-3,23.4,19.0,13.1,15.2,9.9,4.5,85,68,51,30.15,30.04,3,2,4,0.00
2013-1-4,36.4,30.7,18.3,29.9,23.2,12.1,81,74,64,30.05,29.86,5,2,8,0.07
2013-1-5,40.7,34.4,29.8,26.8,24.4,22.0,79,67,53,30.28,29.89,5,2,8,0.06
2013-1-6,39.6,34.6,31.2,36.7,31.5,23.4,96,89,70,30.25,29.96,3,1,8,0.04
2013-1-7,41.0,34.1,29.3,35.0,29.8,25.2,94,85,74,30.43,29.99,5,2,9,0.00
2013-1-8,43.8,38.5,32.8,37.3,35.1,30.2,94,87,76,30.42,30.32,4,2,11,0.00
2013-1-9,45.2,38.0,30.0,41.8,36.2,29.3,97,93,73,30.42,30.05,5,1,12,0.01
2013-1-10,45.1,41.4,37.2,36.2,30.1,26.0,77,64,49,30.51,30.07,5,3,13,0.00
2013-1-11,41.5,37.3,30.8,37.4,32.8,28.3,94,84,74,30.51,30.25,4,1,13,0.06
2013-1-12,44.9,42.0,37.5,42.3,40.3,35.7,97,93,85,30.27,30.15,5,2,13,0.04
2013-1-13,45.1,43.3,41.6,44.8,42.7,40.5,99,98,96,30.19,30.06,3,1,13,0.03
2013-1-14,51.6,44.9,41.9,51.6,43.5,36.4,100,95,70,30.26,29.98,5,2,13,0.01
2013-1-15,42.7,40.2,38.3,39.4,37.5,35.4,96,90,81,30.27,30.21,4,1,13,0.14
2013-1-16,42.8,39.4,36.3,42.3,38.6,35.5,98,97,90,30.24,29.74,8,2,10,0.66
2013-1-17,42.4,37.1,33.2,35.4,32.1,25.1,98,83,65,30.08,29.87,5,2,7,0.00
2013-1-18,32.9,23.0,17.8,25.8,12.1,1.8,96,65,43,30.50,30.02,7,3,15,0.00
2013-1-19,43.3,37.8,17.6,39.4,33.1,6.2,95,83,60,30.46,30.00,8,5,13,0.04
2013-1-20,47.2,42.0,30.9,41.8,36.1,14.0,97,81,49,29.99,29.61,7,4,12,0.01
2013-1-21,31.4,27.5,24.0,27.0,15.5,8.0,96,63,42,30.12,29.79,4,2,8,0.00
2013-1-22,28.0,23.3,15.2,27.0,13.6,1.0,96,69,38,30.07,29.72,5,2,11,0.00
2013-1-23,16.0,12.8,9.2,3.8,-2.0,-5.0,72,51,42,30.16,30.06,5,3,10,0.00
2013-1-24,18.8,13.0,5.8,7.0,-0.5,-5.3,72,55,38,30.19,30.03,7,4,17,0.00
2013-1-25,24.5,17.4,10.5,9.6,2.8,-2.4,62,52,40,30.32,30.06,4,2,6,0.00
2013-1-26,25.4,22.1,18.8,20.8,14.3,3.2,92,73,46,30.19,29.97,6,3,13,0.00
2013-1-27,28.1,22.3,16.6,13.9,9.8,6.8,73,59,45,30.47,30.19,6,3,13,0.00
2013-1-28,33.7,25.7,17.4,32.9,16.4,5.3,97,69,42,30.46,30.02,3,1,4,0.05
2013-1-29,38.1,35.5,33.3,37.3,34.6,32.5,97,97,95,30.23,30.00,5,1,6,0.18
2013-1-30,48.3,42.3,35.8,48.0,41.7,34.9,99,98,96,30.18,29.62,9,6,14,0.09
2013-1-31,50.6,42.8,33.0,50.3,38.7,15.4,100,86,47,29.62,29.12,13,6,18,0.08